Time,TemperatureF,DewpointF,PressureIn,WindDirection,WindDirectionDegrees,WindSpeedMPH,WindSpeedGustMPH,Humidity,HourlyPrecipIn,Conditions,Clouds,dailyrainin,SoftwareType,DateUTC
2013-02-26 00:13:00,44.0,42.0,29.59,SSW,208,0.0,3.0,94,0.11,,,0.05,weatherlink.com 1.10,2013-02-26 06:13:00,
2013-02-26 00:28:00,44.0,42.0,29.58,NE,41,2.0,4.0,94,0.14,,,0.10,weatherlink.com 1.10,2013-02-26 06:28:00,
2013-02-26 00:43:00,43.9,42.0,29.55,ESE,106,1.0,3.0,94,0.20,,,0.18,weatherlink.com 1.10,2013-02-26 06:43:00,
2013-02-26 00:58:00,43.7,42.0,29.57,East,92,2.0,5.0,94,0.22,,,0.22,weatherlink.com 1.10,2013-02-26 06:58:00,
2013-02-26 01:13:00,43.7,42.0,29.57,East,80,0.0,5.0,94,0.22,,,0.27,weatherlink.com 1.10,2013-02-26 07:13:00,
2013-02-26 01:28:00,43.6,42.0,29.56,ENE,74,0.0,3.0,95,0.19,,,0.30,weatherlink.com 1.10,2013-02-26 07:28:00,
2013-02-26 01:43:00,43.8,42.0,29.57,NE,35,0.0,3.0,94,0.20,,,0.38,weatherlink.com 1.10,2013-02-26 07:43:00,
2013-02-26 01:58:00,44.0,43.0,29.55,SSE,150,0.0,10.0,95,0.21,,,0.44,weatherlink.com 1.10,2013-02-26 07:58:00,
2013-02-26 02:13:00,44.0,43.0,29.55,East,90,0.0,5.0,95,0.18,,,0.45,weatherlink.com 1.10,2013-02-26 08:13:00,
2013-02-26 02:28:00,44.0,43.0,29.54,SSE,153,0.0,3.0,95,0.21,,,0.51,weatherlink.com 1.10,2013-02-26 08:28:00,
2013-02-26 02:43:00,43.9,43.0,29.54,East,96,1.0,3.0,95,0.15,,,0.53,weatherlink.com 1.10,2013-02-26 08:43:00,
2013-02-26 02:58:00,43.6,42.0,29.54,NE,53,0.0,2.0,95,0.10,,,0.54,weatherlink.com 1.10,2013-02-26 08:58:00,
2013-02-26 03:13:00,43.4,42.0,29.54,ESE,104,0.0,3.0,94,0.09,,,0.54,weatherlink.com 1.10,2013-02-26 09:13:00,
2013-02-26 03:29:00,43.2,42.0,29.52,East,100,0.0,5.0,95,0.04,,,0.55,weatherlink.com 1.10,2013-02-26 09:29:00,
2013-02-26 03:44:00,42.9,41.0,29.50,SSE,156,0.0,5.0,94,0.02,,,0.55,weatherlink.com 1.10,2013-02-26 09:44:00,
2013-02-26 03:59:00,42.6,41.0,29.51,NNE,24,1.0,3.0,95,0.01,,,0.55,weatherlink.com 1.10,2013-02-26 09:59:00,
2013-02-26 04:14:00,42.5,41.0,29.52,East,87,0.0,5.0,95,0.01,,,0.55,weatherlink.com 1.10,2013-02-26 10:14:00,
2013-02-26 04:29:00,42.5,41.0,29.50,SE,134,0.0,3.0,95,0.00,,,0.55,weatherlink.com 1.10,2013-02-26 10:29:00,
2013-02-26 04:44:00,42.2,41.0,29.50,East,94,1.0,3.0,94,0.00,,,0.55,weatherlink.com 1.10,2013-02-26 10:44:00,
2013-02-26 04:59:00,42.2,41.0,29.50,NW,304,0.0,2.0,95,0.00,,,0.55,weatherlink.com 1.10,2013-02-26 10:59:00,
2013-02-26 05:14:00,42.1,41.0,29.50,East,94,0.0,3.0,95,0.00,,,0.55,weatherlink.com 1.10,2013-02-26 11:14:00,
2013-02-26 05:29:00,42.2,41.0,29.49,ENE,73,0.0,1.0,95,0.00,,,0.55,weatherlink.com 1.10,2013-02-26 11:29:00,
2013-02-26 05:44:00,42.2,41.0,29.49,NNW,348,0.0,2.0,95,0.00,,,0.55,weatherlink.com 1.10,2013-02-26 11:44:00,
2013-02-26 05:59:00,42.2,41.0,29.48,ESE,116,0.0,3.0,95,0.00,,,0.55,weatherlink.com 1.10,2013-02-26 11:59:00,
2013-02-26 06:14:00,42.3,41.0,29.48,East,94,0.0,3.0,95,0.00,,,0.55,weatherlink.com 1.10,2013-02-26 12:14:00,
2013-02-26 06:29:00,42.4,41.0,29.48,ESE,111,0.0,1.0,95,0.00,,,0.55,weatherlink.com 1.10,2013-02-26 12:29:00,
2013-02-26 06:44:00,42.4,41.0,29.48,SSW,201,0.0,4.0,95,0.01,,,0.56,weatherlink.com 1.10,2013-02-26 12:44:00,
2013-02-26 06:59:00,42.5,41.0,29.48,SSW,199,0.0,4.0,95,0.01,,,0.56,weatherlink.com 1.10,2013-02-26 12:59:00,
2013-02-26 07:14:00,42.6,41.0,29.48,SSE,152,0.0,3.0,95,0.01,,,0.56,weatherlink.com 1.10,2013-02-26 13:14:00,
2013-02-26 07:29:00,42.6,41.0,29.49,SSE,164,0.0,4.0,95,0.01,,,0.56,weatherlink.com 1.10,2013-02-26 13:29:00,
2013-02-26 07:44:00,42.7,41.0,29.49,East,88,0.0,0.0,95,0.00,,,0.56,weatherlink.com 1.10,2013-02-26 13:44:00,
2013-02-26 07:59:00,42.9,42.0,29.49,ESE,115,0.0,3.0,95,0.00,,,0.56,weatherlink.com 1.10,2013-02-26 13:59:00,
2013-02-26 08:14:00,43.2,42.0,29.49,SE,127,0.0,3.0,95,0.00,,,0.56,weatherlink.com 1.10,2013-02-26 14:14:00,
2013-02-26 08:29:00,43.4,42.0,29.48,SSE,151,0.0,0.0,95,0.00,,,0.56,weatherlink.com 1.10,2013-02-26 14:29:00,
2013-02-26 08:44:00,43.6,42.0,29.50,SSW,208,0.0,3.0,95,0.00,,,0.56,weatherlink.com 1.10,2013-02-26 14:44:00,
2013-02-26 08:59:00,43.8,43.0,29.50,SSW,208,0.0,3.0,95,0.00,,,0.56,weatherlink.com 1.10,2013-02-26 14:59:00,
2013-02-26 09:14:00,44.1,43.0,29.50,SSW,208,0.0,0.0,95,0.00,,,0.56,weatherlink.com 1.10,2013-02-26 15:14:00,
2013-02-26 09:29:00,44.4,43.0,29.50,South,175,0.0,0.0,96,0.01,,,0.57,weatherlink.com 1.10,2013-02-26 15:29:00,
2013-02-26 09:44:00,44.7,44.0,29.50,SSE,161,0.0,2.0,96,0.01,,,0.57,weatherlink.com 1.10,2013-02-26 15:44:00,
2013-02-26 09:59:00,45.2,44.0,29.50,South,184,0.0,1.0,96,0.01,,,0.57,weatherlink.com 1.10,2013-02-26 15:59:00,
2013-02-26 10:14:00,45.6,45.0,29.51,South,190,0.0,1.0,96,0.02,,,0.58,weatherlink.com 1.10,2013-02-26 16:14:00,
2013-02-26 10:29:00,46.1,45.0,29.52,SW,236,0.0,0.0,96,0.01,,,0.58,weatherlink.com 1.10,2013-02-26 16:29:00,
2013-02-26 10:44:00,46.5,46.0,29.53,WSW,246,0.0,4.0,96,0.02,,,0.59,weatherlink.com 1.10,2013-02-26 16:44:00,
2013-02-26 10:59:00,46.7,46.0,29.53,WSW,245,0.0,2.0,96,0.02,,,0.59,weatherlink.com 1.10,2013-02-26 16:59:00,
2013-02-26 11:14:00,47.4,46.0,29.54,WNW,298,0.0,6.0,96,0.01,,,0.59,weatherlink.com 1.10,2013-02-26 17:14:00,
2013-02-26 11:29:00,47.8,47.0,29.54,West,262,1.0,2.0,96,0.01,,,0.59,weatherlink.com 1.10,2013-02-26 17:29:00,
2013-02-26 11:44:00,48.6,47.0,29.54,West,267,0.0,8.0,93,0.00,,,0.59,weatherlink.com 1.10,2013-02-26 17:44:00,
2013-02-26 11:59:00,49.2,45.0,29.54,SW,223,0.0,9.0,84,0.00,,,0.59,weatherlink.com 1.10,2013-02-26 17:59:00,
2013-02-26 12:14:00,49.4,44.0,29.55,SW,232,4.0,11.0,82,0.00,,,0.59,weatherlink.com 1.10,2013-02-26 18:14:00,
2013-02-26 12:29:00,49.0,43.0,29.55,West,267,8.0,10.0,80,0.00,,,0.59,weatherlink.com 1.10,2013-02-26 18:29:00,
2013-02-26 12:44:00,48.8,42.0,29.55,SSW,211,2.0,10.0,77,0.00,,,0.59,weatherlink.com 1.10,2013-02-26 18:44:00,
2013-02-26 12:59:00,49.0,41.0,29.55,WSW,254,0.0,11.0,75,0.00,,,0.59,weatherlink.com 1.10,2013-02-26 18:59:00,
2013-02-26 13:14:00,49.1,42.0,29.55,West,281,4.0,9.0,75,0.00,,,0.59,weatherlink.com 1.10,2013-02-26 19:14:00,
2013-02-26 13:29:00,49.8,41.0,29.55,West,268,10.0,13.0,72,0.00,,,0.59,weatherlink.com 1.10,2013-02-26 19:29:00,
2013-02-26 13:44:00,49.1,41.0,29.56,SW,236,4.0,11.0,74,0.00,,,0.59,weatherlink.com 1.10,2013-02-26 19:44:00,
2013-02-26 13:59:00,48.3,41.0,29.56,WNW,296,2.0,16.0,75,0.00,,,0.59,weatherlink.com 1.10,2013-02-26 19:59:00,
2013-02-26 14:14:00,47.7,40.0,29.57,West,263,0.0,8.0,75,0.00,,,0.59,weatherlink.com 1.10,2013-02-26 20:14:00,
2013-02-26 14:29:00,47.5,39.0,29.57,SW,221,3.0,10.0,73,0.00,,,0.59,weatherlink.com 1.10,2013-02-26 20:29:00,
2013-02-26 14:44:00,47.2,39.0,29.58,West,279,6.0,14.0,73,0.00,,,0.59,weatherlink.com 1.10,2013-02-26 20:44:00,
2013-02-26 14:59:00,46.7,38.0,29.59,West,263,6.0,9.0,73,0.00,,,0.59,weatherlink.com 1.10,2013-02-26 20:59:00,
2013-02-26 15:14:00,46.6,38.0,29.59,WSW,238,7.0,12.0,73,0.00,,,0.59,weatherlink.com 1.10,2013-02-26 21:14:00,
2013-02-26 15:29:00,46.5,39.0,29.59,West,270,8.0,10.0,74,0.00,,,0.59,weatherlink.com 1.10,2013-02-26 21:29:00,
2013-02-26 15:44:00,46.1,39.0,29.60,SW,225,0.0,5.0,76,0.00,,,0.59,weatherlink.com 1.10,2013-02-26 21:44:00,
2013-02-26 15:59:00,45.9,38.0,29.62,SW,229,1.0,10.0,73,0.00,,,0.59,weatherlink.com 1.10,2013-02-26 21:59:00,
2013-02-26 16:14:00,46.0,39.0,29.62,SSW,207,0.0,8.0,75,0.00,,,0.59,weatherlink.com 1.10,2013-02-26 22:14:00,
2013-02-26 16:29:00,45.7,39.0,29.62,WSW,257,0.0,8.0,76,0.00,,,0.59,weatherlink.com 1.10,2013-02-26 22:29:00,
2013-02-26 16:45:00,45.3,38.0,29.63,West,265,3.0,9.0,75,0.00,,,0.59,weatherlink.com 1.10,2013-02-26 22:45:00,
2013-02-26 17:00:00,45.1,38.0,29.63,SW,229,0.0,12.0,77,0.00,,,0.59,weatherlink.com 1.10,2013-02-26 23:00:00,
2013-02-26 17:15:00,44.9,38.0,29.64,SW,226,0.0,8.0,76,0.00,,,0.59,weatherlink.com 1.10,2013-02-26 23:15:00,
2013-02-26 17:45:00,44.8,38.0,29.65,West,265,0.0,9.0,76,0.00,,,0.59,weatherlink.com 1.10,2013-02-26 23:45:00,
2013-02-26 18:00:00,44.6,37.0,29.66,WSW,257,5.0,7.0,76,0.00,,,0.59,weatherlink.com 1.10,2013-02-27 00:00:00,
2013-02-26 18:15:00,44.5,38.0,29.66,SSE,167,0.0,8.0,78,0.00,,,0.59,weatherlink.com 1.10,2013-02-27 00:15:00,
2013-02-26 18:30:00,44.3,38.0,29.67,WSW,237,3.0,6.0,77,0.00,,,0.59,weatherlink.com 1.10,2013-02-27 00:30:00,
2013-02-26 18:45:00,44.4,38.0,29.68,WSW,242,0.0,7.0,78,0.00,,,0.59,weatherlink.com 1.10,2013-02-27 00:45:00,
2013-02-26 19:00:00,44.2,37.0,29.68,WSW,244,3.0,13.0,76,0.00,,,0.59,weatherlink.com 1.10,2013-02-27 01:00:00,
2013-02-26 19:15:00,44.2,37.0,29.69,West,261,5.0,16.0,77,0.00,,,0.59,weatherlink.com 1.10,2013-02-27 01:15:00,
2013-02-26 19:30:00,44.2,37.0,29.70,WNW,284,6.0,11.0,75,0.00,,,0.59,weatherlink.com 1.10,2013-02-27 01:30:00,
2013-02-26 19:45:00,44.2,37.0,29.71,WSW,248,0.0,9.0,76,0.00,,,0.59,weatherlink.com 1.10,2013-02-27 01:45:00,
2013-02-26 20:00:00,44.0,37.0,29.72,West,272,3.0,7.0,75,0.00,,,0.59,weatherlink.com 1.10,2013-02-27 02:00:00,
2013-02-26 20:15:00,43.7,36.0,29.73,West,261,5.0,11.0,73,0.00,,,0.59,weatherlink.com 1.10,2013-02-27 02:15:00,
2013-02-26 20:30:00,43.6,36.0,29.73,WSW,256,0.0,8.0,75,0.00,,,0.59,weatherlink.com 1.10,2013-02-27 02:30:00,
2013-02-26 20:45:00,43.4,35.0,29.74,WSW,256,3.0,8.0,73,0.00,,,0.59,weatherlink.com 1.10,2013-02-27 02:45:00,
2013-02-26 21:00:00,43.2,35.0,29.75,West,263,4.0,9.0,74,0.00,,,0.59,weatherlink.com 1.10,2013-02-27 03:00:00,
2013-02-26 21:15:00,43.2,35.0,29.75,NW,317,2.0,7.0,73,0.00,,,0.59,weatherlink.com 1.10,2013-02-27 03:15:00,
2013-02-26 21:30:00,43.0,35.0,29.75,WSW,242,2.0,10.0,74,0.00,,,0.59,weatherlink.com 1.10,2013-02-27 03:30:00,
2013-02-26 21:45:00,42.9,36.0,29.75,West,278,0.0,9.0,76,0.00,,,0.59,weatherlink.com 1.10,2013-02-27 03:45:00,
2013-02-26 22:00:00,42.8,36.0,29.76,West,275,0.0,5.0,77,0.00,,,0.59,weatherlink.com 1.10,2013-02-27 04:00:00,
2013-02-26 22:15:00,42.5,36.0,29.76,West,261,0.0,5.0,77,0.00,,,0.59,weatherlink.com 1.10,2013-02-27 04:15:00,
2013-02-26 22:30:00,42.4,36.0,29.76,West,278,0.0,4.0,78,0.00,,,0.59,weatherlink.com 1.10,2013-02-27 04:30:00,
2013-02-26 22:45:00,42.6,36.0,29.75,WSW,242,1.0,11.0,76,0.00,,,0.59,weatherlink.com 1.10,2013-02-27 04:45:00,
2013-02-26 23:00:00,42.8,35.0,29.76,West,267,1.0,5.0,75,0.00,,,0.59,weatherlink.com 1.10,2013-02-27 05:00:00,
2013-02-26 23:15:00,42.7,36.0,29.77,West,267,4.0,7.0,77,0.00,,,0.59,weatherlink.com 1.10,2013-02-27 05:15:00,
2013-02-26 23:30:00,41.5,36.0,29.77,West,267,0.0,7.0,81,0.00,,,0.59,weatherlink.com 1.10,2013-02-27 05:30:00,
2013-02-26 23:45:00,41.3,36.0,29.78,WNW,284,2.0,4.0,80,0.00,,,0.59,weatherlink.com 1.10,2013-02-27 05:45:00,